User: anonymous   Login
Location: Walnut Point State Park
(39.6958°N, 88.0345°W)
Time: 08:40:05
(UTC-06:00)
Language:

ATLAS 3B R/B - Orbit

View from above orbital plane
View from above orbital plane
View from above satellite
View from above satellite

Ground track
Ground track

The orbit data is extracted from the following two-line orbital elements,

1 28538U 05004B   16044.15830580 0.00000050  00000-0  79648-4 0    06
2 28538  63.8168  92.0463 0177000 210.7222 149.2778 13.43077464    02
Epoch (UTC): 13 February 2016 03:47:57
Eccentricity: 0.0177000
inclination: 63.8168°
perigee height: 965 km
apogee height: 1230 km
right ascension of ascending node: 92.0463°
argument of perigee: 210.7222°
revolutions per day: 13.43077464
mean anomaly at epoch: 149.2778°
orbit number at epoch: 0

The dashed part of the orbit path shows where the satellite is in the earth's shadow,  

DLR